Regional Weather Roundup
Issued by NWS

Home | Current Version | Previous Version | Graphics & Text | Print | Product List | Glossary On
Versions: 1 2 3 4 5 6 7 8 9 10 11 12 13 14 15 16 17 18 19 20 21 22 23 24 25 26 27 28 29 30 31 32 33 34 35 36 37 38 39 40 41 42 43 44 45 46 47 48 49 50
000
ASUS43 KLOT 232204
RWRIL

ILLINOIS REGIONAL WEATHER ROUNDUP
NATIONAL WEATHER SERVICE CHICAGO/ROMEOVILLE IL
500 PM CDT SAT SEP 23 2017

NOTE: "FAIR" INDICATES FEW OR NO CLOUDS BELOW 12,000 FEET WITH NO
SIGNIFICANT WEATHER AND/OR OBSTRUCTIONS TO VISIBILITY.

* THESE STATIONS ARE NOT UNDER NWS QUALITY CONTROL. THEY ALSO MAY NOT
  REPORT WEATHER SUCH AS PRECIPITATION OR FOG.

ILZ001-002-007-009-015-016-024-232300-
NORTHWEST ILLINOIS

CITY           SKY/WX    TMP DP  RH WIND       PRES   REMARKS
MOLINE         SUNNY     91  63  39 S6        29.99S HX  92
STERLING*      SUNNY     92  64  39 VRB6      30.01F HX  93
SAVANNA*       SUNNY     92  64  39 S8        30.01S HX  93
$$

ILZ003-004-008-010-011-017-018-232300-
NORTH CENTRAL ILLINOIS

CITY           SKY/WX    TMP DP  RH WIND       PRES   REMARKS
ROCKFORD       MOSUNNY   91  61  36 S7        30.03F HX  91
FREEPORT*      SUNNY     88  65  45 S5        30.04S HX  90
ROCHELLE*      SUNNY     91  62  37 S7        30.03S HX  92
DE KALB*       SUNNY     91  64  41 SE9       30.05S HX  92
$$

ILZ005-006-012>014-019>023-232300-
NORTHEAST ILLINOIS

CITY           SKY/WX    TMP DP  RH WIND       PRES   REMARKS
CHICAGO-OHARE  MOSUNNY   91  64  40 E13       30.03S HX  92
CHICAGO-MIDWAY MOSUNNY   91  66  43 E13       30.03S HX  93
AURORA         MOSUNNY   92  64  39 SE5       30.03F HX  93
LANSING*       SUNNY     89  70  53 E9        30.04S HX  93
JOLIET*        SUNNY     94  62  34 CALM      30.02S HX  95
WAUKEGAN       SUNNY     83  68  60 SE9       30.04F HX  86
DUPAGE AIRPORT SUNNY     92  63  38 S6        30.03S HX  93
KANKAKEE*      SUNNY     91  64  41 SE5       30.04S HX  92
WHEELING       SUNNY     90  66  45 E9        30.05S HX  92
MORRIS*        SUNNY     92  63  37 SE7       30.01F HX  93
NORTHERLY ISL    N/A     80  68  66 CALM        N/A  HX  83
$$

LMZ740>746-232300-
SOUTHERN LAKE MICHIGAN

STATION/POSITION SKY/WX   TEMP    WIND        PRES    VSBY  WAVE
                          AIR SEA DIR/SP/G                  HT/PER
                          (F)     (DEG/KT/KT) (MB)    (MI)  (FT/S)
SOUTHERN BUOY              74 72  100/  4/  4 1018.1          0
WILMETTE HARBOR            76 74  100/  8/ 10   N/A           1/ 2
HARRISON CRIB              80      90/ 14/ 14   N/A
BURNHAM HARBOR             80                   N/A
CALUMET HARBOR             79      50/  8/ 11 1016.8F
BURNS HARBOR               78      70/  8/  9 1017.9S
MICHIGAN CITY              77      50/ 12/ 13   N/A
MICHIGAN CITY 6N           76 74   80/  8/  8   N/A           1
ST. JOSEPH                 76 74   60/  6/  8 1017.6F         0
$$

ILZ025>027-034>036-040-047-049-050-058-095>099-232300-
WEST-CENTRAL ILLINOIS

CITY           SKY/WX    TMP DP  RH WIND       PRES   REMARKS
QUINCY         SUNNY     91  60  35 SE10      29.98F HX  90
GALESBURG*     SUNNY     90  60  36 SE7       30.01S HX  89
MACOMB*        MOSUNNY   91  62  38 E8        30.02S HX  91
$$

ILZ028>032-037-038-041>044-048-051>054-059>061-232300-
CENTRAL ILLINOIS

CITY           SKY/WX    TMP DP  RH WIND       PRES   REMARKS
BLOOMINGTON    SUNNY     89  65  44 SE6       30.04F HX  91
DECATUR        SUNNY     92  59  33 SE10      30.01F HX  91
PEORIA         SUNNY     91  63  39 S7        30.01F HX  92
LACON*         SUNNY     92  62  35 S3        30.00S HX  93
LINCOLN*       SUNNY     93  61  35 SE9       30.00F HX  93
SPRINGFIELD    SUNNY     93  60  33 SE7       30.00F HX  93
TAYLORVILLE    NOT AVBL
$$

ILZ033-039-045-046-055>057-062-063-232300-
EAST-CENTRAL ILLINOIS

CITY           SKY/WX    TMP DP  RH WIND       PRES   REMARKS
CHAMPAIGN      MOSUNNY   92  62  36 E9        30.03S HX  92
MATTOON        SUNNY     91  62  37 E8        30.01F HX  91
PARIS*         SUNNY     92  64  40 E7        30.03S HX  93
$$

ILZ079-100>102-232300-
SOUTHWEST ILLINOIS

CITY           SKY/WX    TMP DP  RH WIND       PRES   REMARKS
ALTON          MOSUNNY   90  64  43 SE9       29.99F HX  91
BELLEVILLE     SUNNY     92  61  35 SE7       29.97F HX  92
CAHOKIA*       MOSUNNY   94  59  31 E9        29.98S HX  93
SPARTA*        SUNNY     89  62  40 CALM      29.99F HX  89
$$

ILZ064>066-069>071-074>076-080>082-084>086-088>090-092>094-232300-
SOUTH-CENTRAL ILLINOIS

CITY           SKY/WX    TMP DP  RH WIND       PRES   REMARKS
CARBONDALE     SUNNY     86  66  51 E6        29.98F HX  88
EFFINGHAM*     SUNNY     92  62  36 E9        30.02F HX  93
MARION         MOSUNNY   93  61  33 SE8       30.00S HX  93
MT. VERNON       N/A     91  61  36 VRB3      30.00S HX  91
CENTRALIA*     MOSUNNY   92  61  35 E7        29.99S HX  92
SALEM*         SUNNY     92  56  29 CALM      30.00F HX  90
METROPOLIS*    SUNNY     91  67  44 CALM      29.99S HX  93
$$

ILZ067-068-072-073-078-083-087-091-232300-
SOUTHEAST ILLINOIS

CITY           SKY/WX    TMP DP  RH WIND       PRES   REMARKS
LAWRENCEVILLE  SUNNY     90  65  43 E8        30.02S HX  92
FLORA*         SUNNY     92  62  36 SE9       30.01S HX  92
FAIRFIELD*     SUNNY     91  55  30 E6        30.00S HX  88
HARRISBURG*    SUNNY     91  62  37 E10       30.00S HX  91
ROBINSON*      SUNNY     91  61  36 SE8       30.02S HX  90
CARMI*         SUNNY     90  61  37 E6        30.00S HX  90
$$

ABBREVIATIONS USED IN REMARKS
   TC - TEMPERATURE IN CELSIUS
  WCI - WIND CHILL INDEX
   HX - HEAT INDEX
  VSB - VISIBILITY
$$





USA.gov is the U.S. government's official web portal to all federal, state and local government web resources and services.